AXM664 EDDM-EDDM

Flight info

Callsign AXM664
Flight time N/A
Altitude 5000
Route MIQ8S/26L MIQ
Aircraft A333/H-SDE3GHIJ2J3J5M1RVWXY/LB2D1

Departure

Time 2026-05-07 12:43
Airport Munich Airport (EDDM)

Arrival

Time N/A
Airport Munich Airport (EDDM)
Time Latitude Longitude Altitude Speed Heading
2026-05-07 12:02 48.35323 11.80018 1468 ft 0 kts 263°
2026-05-07 12:27 48.35323 11.80019 1468 ft 1 kts 263°
2026-05-07 12:27 48.35324 11.80037 1468 ft 2 kts 263°
2026-05-07 12:27 48.35326 11.80058 1468 ft 2 kts 263°
2026-05-07 12:28 48.35327 11.80080 1468 ft 2 kts 266°
2026-05-07 12:28 48.35325 11.80102 1468 ft 2 kts 295°
2026-05-07 12:28 48.35318 11.80119 1468 ft 2 kts 315°
2026-05-07 12:28 48.35307 11.80132 1468 ft 2 kts 336°
2026-05-07 12:29 48.35296 11.80138 1468 ft 0 kts 353°
2026-05-07 12:29 48.35292 11.80139 1468 ft 0 kts 354°
2026-05-07 12:30 48.35292 11.80138 1468 ft 0 kts 354°
2026-05-07 12:30 48.35292 11.80139 1468 ft 0 kts 354°
2026-05-07 12:32 48.35318 11.80152 1468 ft 11 kts 32°
2026-05-07 12:32 48.35435 11.80166 1468 ft 19 kts 351°
2026-05-07 12:32 48.35573 11.80142 1468 ft 18 kts 353°
2026-05-07 12:32 48.35669 11.80123 1468 ft 13 kts 344°
2026-05-07 12:33 48.35794 11.80065 1465 ft 7 kts 353°
2026-05-07 12:33 48.35803 11.80063 1465 ft 0 kts 353°
2026-05-07 12:34 48.35824 11.80044 1464 ft 10 kts 317°
2026-05-07 12:34 48.35842 11.79902 1466 ft 13 kts 266°
2026-05-07 12:34 48.35833 11.79736 1467 ft 18 kts 264°
2026-05-07 12:34 48.35829 11.79676 1468 ft 2 kts 264°
2026-05-07 12:35 48.35824 11.79607 1469 ft 10 kts 264°
2026-05-07 12:35 48.35883 11.79511 1470 ft 17 kts 358°
2026-05-07 12:35 48.35960 11.79501 1468 ft 5 kts 354°
2026-05-07 12:35 48.35991 11.79496 1468 ft 4 kts 354°
2026-05-07 12:36 48.36017 11.79492 1467 ft 4 kts 353°
2026-05-07 12:36 48.36042 11.79487 1467 ft 0 kts 353°
2026-05-07 12:36 48.36052 11.79486 1467 ft 7 kts 353°
2026-05-07 12:36 48.36180 11.79468 1464 ft 26 kts 10°
2026-05-07 12:37 48.36216 11.79538 1463 ft 9 kts 73°
2026-05-07 12:37 48.36234 11.79722 1461 ft 24 kts 83°
2026-05-07 12:37 48.36250 11.79942 1458 ft 26 kts 84°
2026-05-07 12:38 48.36285 11.80396 1455 ft 22 kts 83°
2026-05-07 12:38 48.36350 11.81254 1451 ft 24 kts 85°
2026-05-07 12:39 48.36370 11.81495 1451 ft 23 kts 81°
2026-05-07 12:39 48.36389 11.81757 1451 ft 27 kts 84°
2026-05-07 12:39 48.36394 11.82008 1451 ft 18 kts 88°
2026-05-07 12:39 48.36420 11.82112 1451 ft 15 kts 38°
2026-05-07 12:40 48.36530 11.82122 1451 ft 6 kts 352°
2026-05-07 12:40 48.36544 11.82119 1451 ft 0 kts 352°
2026-05-07 12:41 48.36667 11.82021 1451 ft 17 kts 300°
2026-05-07 12:42 48.36673 11.81897 1451 ft 3 kts 262°
2026-05-07 12:42 48.36654 11.81666 1451 ft 62 kts 264°
2026-05-07 12:43 48.36618 11.81170 1452 ft 111 kts 264°
2026-05-07 12:43 48.36412 11.77985 2825 ft 161 kts 266°
2026-05-07 12:43 48.36308 11.76347 3770 ft 161 kts 266°
2026-05-07 12:44 48.36202 11.74701 4131 ft 173 kts 266°
2026-05-07 12:44 48.36089 11.72957 4430 ft 189 kts 266°
2026-05-07 12:44 48.35944 11.70720 4409 ft 227 kts 265°
2026-05-07 12:44 48.36024 11.68197 4403 ft 258 kts 285°
2026-05-07 12:45 48.36661 11.65749 4432 ft 260 kts 296°
2026-05-07 12:45 48.37812 11.63727 4412 ft 259 kts 324°
2026-05-07 12:45 48.39485 11.62790 4411 ft 261 kts 352°
2026-05-07 12:45 48.41278 11.63191 4408 ft 260 kts 21°
2026-05-07 12:46 48.42630 11.64780 4599 ft 248 kts 49°
2026-05-07 12:46 48.43386 11.67002 4837 ft 249 kts 76°
2026-05-07 12:46 48.43588 11.69612 5009 ft 252 kts 84°
2026-05-07 12:46 48.43743 11.72258 4963 ft 251 kts 84°
2026-05-07 12:47 48.43895 11.74823 4983 ft 251 kts 84°
2026-05-07 12:47 48.44036 11.77208 4874 ft 248 kts 84°
2026-05-07 12:47 48.44195 11.79893 4598 ft 249 kts 84°
2026-05-07 12:47 48.44349 11.82504 4374 ft 248 kts 84°
2026-05-07 12:48 48.44499 11.85054 4159 ft 247 kts 84°
2026-05-07 12:48 48.44637 11.87431 3987 ft 248 kts 84°
2026-05-07 12:48 48.44791 11.90112 3983 ft 246 kts 84°
2026-05-07 12:48 48.44937 11.92674 3981 ft 246 kts 84°
2026-05-07 12:49 48.45083 11.95217 3976 ft 245 kts 84°
2026-05-07 12:49 48.45227 11.97743 3971 ft 245 kts 84°
2026-05-07 12:49 48.45372 12.00329 3964 ft 245 kts 84°
2026-05-07 12:49 48.45511 12.02902 3964 ft 245 kts 84°
2026-05-07 12:50 48.45647 12.05458 3960 ft 245 kts 84°
2026-05-07 12:50 48.45422 12.07976 3953 ft 245 kts 113°
2026-05-07 12:50 48.44398 12.09956 3975 ft 243 kts 146°
2026-05-07 12:50 48.42858 12.10880 3977 ft 238 kts 173°
2026-05-07 12:51 48.41255 12.10783 3957 ft 232 kts 202°
2026-05-07 12:51 48.39964 12.09484 3974 ft 224 kts 231°
2026-05-07 12:51 48.39011 12.07707 3951 ft 211 kts 234°
2026-05-07 12:51 48.38125 12.06042 3931 ft 193 kts 234°
2026-05-07 12:52 48.37313 12.04536 3930 ft 176 kts 234°
2026-05-07 12:52 48.36631 12.03110 3976 ft 173 kts 239°
2026-05-07 12:52 48.36083 12.01507 3893 ft 171 kts 263°
2026-05-07 12:52 48.35959 11.99747 3840 ft 169 kts 265°
2026-05-07 12:53 48.35744 11.98106 3925 ft 165 kts 263°
2026-05-07 12:53 48.35643 11.96404 3991 ft 167 kts 268°
2026-05-07 12:53 48.35577 11.94647 3953 ft 167 kts 274°
2026-05-07 12:53 48.35974 11.93051 3925 ft 159 kts 298°
2026-05-07 12:54 48.36536 11.91530 4097 ft 173 kts 298°
2026-05-07 12:54 48.37231 11.90227 4627 ft 170 kts 312°
2026-05-07 12:54 48.38220 11.89226 5055 ft 173 kts 328°
2026-05-07 12:54 48.39416 11.88759 4906 ft 180 kts 359°
2026-05-07 12:55 48.40651 11.88916 5017 ft 182 kts
2026-05-07 12:55 48.41763 11.89269 4969 ft 184 kts 12°
2026-05-07 12:55 48.42954 11.90237 4945 ft 190 kts 44°
2026-05-07 12:55 48.43701 11.91893 5016 ft 194 kts 54°
2026-05-07 12:56 48.44444 11.93631 4979 ft 194 kts 54°
2026-05-07 12:56 48.45148 11.95284 4983 ft 192 kts 54°
2026-05-07 12:56 48.45864 11.96993 4969 ft 194 kts 57°
2026-05-07 12:56 48.46167 11.98967 4968 ft 194 kts 85°
2026-05-07 12:57 48.46268 12.00961 4986 ft 196 kts 84°
2026-05-07 12:57 48.46363 12.02752 4966 ft 195 kts 84°
2026-05-07 12:57 48.46479 12.04932 4969 ft 196 kts 84°
2026-05-07 12:57 48.46590 12.06949 4963 ft 195 kts 84°
2026-05-07 12:58 48.46699 12.08960 4972 ft 195 kts 84°
2026-05-07 12:58 48.46809 12.10939 4968 ft 195 kts 84°
2026-05-07 12:58 48.46923 12.12979 4973 ft 195 kts 83°
2026-05-07 12:58 48.47008 12.15015 4950 ft 197 kts 91°
2026-05-07 12:59 48.46505 12.16952 4975 ft 203 kts 131°
2026-05-07 12:59 48.45351 12.18063 4955 ft 197 kts 168°
2026-05-07 12:59 48.43998 12.18414 4991 ft 198 kts 174°
2026-05-07 12:59 48.42637 12.18764 4962 ft 197 kts 174°
2026-05-07 13:00 48.41278 12.19117 4968 ft 197 kts 174°
2026-05-07 13:00 48.39949 12.19464 4970 ft 197 kts 174°
2026-05-07 13:00 48.38589 12.19809 4969 ft 197 kts 174°
2026-05-07 13:00 48.37245 12.20155 4963 ft 197 kts 174°